Simultaneous Nadir Overpasses (SNOs) Predictions

Prediction of SNOs between METOP-A and TERRA Satellite Orbit:

Table of predicted SNOs for the next 14.0 days since TLE Epoch: 1/4/2013
Index Date (METOP-A) Time (METOP-A) Lat,Lon (METOP-A) SZA (METOP-A ) Date (TERRA) Time (TERRA) Lat,Lon (TERRA) SZA (TERRA ) Distance(km) Time Diff (sec)
1 01/06/2013 08:31:35 81.35, 100.10 106.34 01/06/2013 08:31:58 81.35, 100.12 106.36 0.36 23
2 01/06/2013 09:22:15 -81.35, -92.42 73.65 01/06/2013 09:21:25 -81.34, -92.32 73.66 1.76 50
3 01/09/2013 04:05:55 81.35, 166.50 105.94 01/09/2013 04:06:15 81.34, 166.41 105.93 1.75 20
4 01/09/2013 04:56:34 -81.35, -25.60 74.01 01/09/2013 04:55:41 -81.36, -25.63 74.03 0.69 53
5 01/11/2013 23:40:14 81.35,-127.04 105.49 01/11/2013 23:40:31 81.35,-127.01 105.50 0.67 17
6 01/1
